{"data":{"norad_id":66892,"intl_designator":"2025-283Q","name":"STARLINK-35883","alt_names":[],"object_type":"PAYLOAD","status":"ACTIVE","operator":null,"country":"US","launch_date":"2025-12-04","launch_site_code":"AFWTR","launch_vehicle":null,"mission":null,"orbit_class":"UNKNOWN","rcs_meters":null,"size_class":null,"mass_kg":null,"dimensions":null,"purposes":["comms"],"wikipedia_slug":null,"has_3d_model":false,"image_url":null,"decayed_at":null,"tle_current":{"epoch":"2026-09-20T05:08:48.544800Z","epoch_age_seconds":108789,"freshness":"FRESH","line1":"1 66892U 25283Q   26263.21445075  .00019911  00000+0  59840-3 0  9997","line2":"2 66892  53.1591 198.7102 0001279  98.4861 261.6287 15.34424206 45653","mean_motion":15.34424206,"eccentricity":0.0001279,"inclination_deg":53.1591,"raan_deg":198.7102,"arg_perigee_deg":98.4861,"mean_anomaly_deg":261.6287,"bstar":0.0005984,"rev_number":4565,"period_min":93.84627760493,"perigee_km":461.75636155469,"apogee_km":463.50623008476,"semimajor_km":6840.7682958197,"source":"CELESTRAK","updated_at":"2026-09-21T09:00:36.052308Z"}}}